Location: Brachbach
(49.1847°N, 9.7240°E)
Time: 08:08:25
(UTC+00:00)

FO-29 - Pass Details

Date: 22 March 2026
Orbit: 801 x 1320 km, 98.5° (Epoch: 17 April)

Event Time Altitude Azimuth Distance (km) Brightness Sun altitude
Rises 18:05:31 0° 23° (NNE) 4,232 12.7 -5.5°
Reaches altitude 10° 18:09:08 10° 40° (NE) 3,310 12.0 -6.1°
Maximum altitude 18:14:35 20° 85° (E) 2,637 11.2 -6.9°
Drops below altitude 10° 18:20:04 10° 130° (SE) 3,339 11.8 -7.8°
Sets 18:23:41 0° 146° (SE) 4,280 12.4 -8.4°
